Location: Laas
(43.4693°N, 0.3073°E)
Time: 15:25:50
(UTC+00:00)

CSL-04 Debris - Pass Details

Date: 25 October 2020
Orbit: 827 x 848 km, 98.9° (Epoch: 24 November)

Event Time Altitude Azimuth Distance (km) Brightness Sun altitude
Rises 18:38:14 0° 156° (SSE) 3,366 7.1 -18.6°
Reaches altitude 10° 18:40:35 10° 154° (SSE) 2,440 6.3 -19.0°
Maximum altitude 18:45:57 69° 72° (ENE) 900 4.1 -20.0°
Drops below altitude 10° 18:51:23 10° 351° (N) 2,470 6.8 -20.9°
Sets 18:53:46 0° 349° (N) 3,412 7.5 -21.4°
